This is the latest recevied weather packets stored in our database for station/object WD9U. If no packets are shown the sender has not sent any weather packets the latest 10 day(s).
| Time | Temp. | Humidity | Pressure | Rain* | Wind** | Luminosity | Snow |
|---|---|---|---|---|---|---|---|
| 1777505212 | 6.11° C | 48% | 1018.1 hPa | 0 mm | - | 80 W/m² | - |
| 1777504851 | 6.11° C | 47% | 1018.2 hPa | 0 mm | - | 86 W/m² | - |
| 1777504491 | 6.11° C | 48% | 1018.2 hPa | 0 mm | - | 92 W/m² | - |
| 1777504244 | 6.11° C | 48% | 1018.2 hPa | 0 mm | - | 94 W/m² | - |
| 1777504131 | 6.11° C | 48% | 1018.2 hPa | 0 mm | - | 94 W/m² | - |
| 1777503771 | 6.11° C | 48% | 1018.1 hPa | 0 mm | - | 86 W/m² | - |
| 1777503411 | 6.11° C | 47% | 1018.1 hPa | 0 mm | - | 83 W/m² | - |
| 1777503043 | 6.11° C | 47% | 1018.3 hPa | 0 mm | - | 88 W/m² | - |
| 1777502690 | 6.67° C | 48% | 1018.2 hPa | 0 mm | - | 102 W/m² | - |
| 1777502329 | 6.67° C | 48% | 1018.1 hPa | 0 mm | - | 110 W/m² | - |
| 1777501978 | 6.67° C | 48% | 1018.1 hPa | 0 mm | - | 120 W/m² | - |
| 1777501841 | 6.67° C | 50% | 1018.1 hPa | 0 mm | - | 123 W/m² | - |
| 1777501617 | 6.67° C | 51% | 1018.1 hPa | 0 mm | - | 134 W/m² | - |
| 1777501257 | 6.67° C | 50% | 1018.3 hPa | 0 mm | - | 149 W/m² | - |
| 1777500896 | 6.67° C | 49% | 1018.3 hPa | 0 mm | - | 161 W/m² | - |
| 1777500649 | 6.67° C | 50% | 1018.3 hPa | 0 mm | - | 159 W/m² | - |
| 1777500536 | 6.67° C | 51% | 1018.2 hPa | 0 mm | - | 159 W/m² | - |
| 1777500176 | 6.67° C | 48% | 1018.2 hPa | 0 mm | - | 162 W/m² | - |
| 1777499816 | 6.67° C | 50% | 1018.2 hPa | 0 mm | - | 184 W/m² | - |
| 1777499449 | 6.67° C | 50% | 1018.2 hPa | 0 mm | - | 189 W/m² | - |
| 1777499096 | 6.67° C | 51% | 1018.1 hPa | 0 mm | - | 205 W/m² | - |
| 1777498736 | 6.67° C | 50% | 1018.3 hPa | 0 mm | - | 231 W/m² | - |
| 1777498376 | 6.11° C | 51% | 1018.2 hPa | 0 mm | - | 238 W/m² | - |
| 1777498249 | 6.11° C | 51% | 1018.2 hPa | 0 mm | - | 240 W/m² | - |
| 1777498016 | 6.11° C | 54% | 1018.2 hPa | 0 mm | - | 250 W/m² | - |
* Rain latest hour (hover to see other rain measurements)
** Current wind speed in m/s (hover to see current wind gust speed)